Regional Weather Roundup
Issued by NWS

Home | Current Version | Previous Version | Text Only | Print | Product List | Glossary On
Versions: 1 2 3 4 5 6 7 8 9 10 11 12 13 14 15 16 17 18 19 20 21 22 23 24 25 26 27 28 29 30 31 32 33 34 35 36 37 38 39 40 41 42 43 44 45 46 47 48 49
000
ASUS45 KBOI 250410
RWRID
WEATHER ROUNDUP FOR IDAHO
NATIONAL WEATHER SERVICE BOISE ID
900 PM MST WED DEC 24 2014

NOTE: "FAIR" INDICATES FEW OR NO CLOUDS BELOW 12000 FEET
WITH NO SIGNIFICANT WEATHER AND/OR OBSTRUCTIONS TO VISIBILITY

IDZ012-014-250500-
SOUTHWEST IDAHO


CITY           SKY/WX    TMP DP  RH WIND       PRES   REMARKS
BOISE          CLOUDY    34  30  86 NW24G33   29.55R WCI  21
CALDWELL       CLOUDY    36  25  64 SW25G35   29.62R WCI  23
MOUNTAIN HOME  FRZ RAIN  32  32 100 NW31G40   29.50R FOG     WCI  17
$$

IDZ016-017-250500-
SOUTHCENTRAL IDAHO


CITY           SKY/WX    TMP DP  RH WIND       PRES   REMARKS
JEROME         SNOW      31  30  96 SW25G35   29.39R VSB 1/4 WCI  17
TWIN FALLS     LGT SNOW  32  28  85 SW32G43   29.41R FOG     WCI  17
$$

IDZ019>023-250500-
SOUTHEAST IDAHO


CITY           SKY/WX    TMP DP  RH WIND       PRES   REMARKS
IDAHO FALLS    LGT SNOW  32  31  96 CALM      29.42F FOG
POCATELLO      FLURRIES  36  34  92 S17G26    29.40F WCI  26
REXBURG        LGT SNOW  31  31 100 SE6       29.43F VSB 1   WCI  25
$$

IDZ006-010-011-018-031-032-250500-
CENTRAL IDAHO MOUNTAINS


CITY           SKY/WX    TMP DP  RH WIND       PRES   REMARKS
MCCALL         CLOUDY    28  21  75 NW6G18    29.56R WCI  22
HAILEY         LGT SNOW  28  28 100 W5        29.39F VSB 1   WCI  23
STANLEY          N/A     31  28  89 NW7       29.38S WCI  24
SALMON         CLOUDY    30  28  93 CALM      29.47S
CHALLIS        LGT SNOW  28  27  96 NW8       29.43R FOG     WCI  20
$$

IDZ002-004-006-007-026-250500-
NORTHERN IDAHO


CITY           SKY/WX    TMP DP  RH WIND       PRES   REMARKS
LEWISTON       CLOUDY    40  34  79 NW9       29.76R WCI  34
LOWELL           N/A     36  35  96 CALM      29.72R
COEUR D`ALENE  CLOUDY    34  34 100 W6        29.69R WCI  29
MULLAN PASS    SNOW      25  21  85 NW8       29.54R VSB 1/2 WCI  16
$$


USA.gov is the U.S. government's official web portal to all federal, state and local government web resources and services.